Chatuge Observed Data For Previous 48 Hours

Caption
Day and Hour Reservoir Elevation (behind dam)* Tailwater Elevation (below dam)* Average Hourly Discharge*
3/22/2019 2 AM EDT 1,923.91 1,805.96 1,264
3/22/2019 3 AM EDT 1,923.91 1,805.94 1,264
3/22/2019 4 AM EDT 1,923.90 1,805.94 1,260
3/22/2019 5 AM EDT 1,923.90 1,805.87 1,262
3/22/2019 6 AM EDT 1,923.89 1,805.89 1,254
3/22/2019 7 AM EDT 1,923.89 1,805.89 1,257
3/22/2019 8 AM EDT 1,923.88 1,805.95 1,254
3/22/2019 9 AM EDT 1,923.88 1,805.91 1,246
3/22/2019 10 AM EDT 1,923.87 1,805.92 1,250
3/22/2019 11 AM EDT 1,923.87 1,805.89 1,243
3/22/2019 12 PM EDT 1,923.86 1,805.92 1,248
3/22/2019 1 PM EDT 1,923.86 1,805.90 1,249
3/22/2019 2 PM EDT 1,923.85 1,805.94 1,247
3/22/2019 3 PM EDT 1,923.84 1,805.90 1,242
3/22/2019 4 PM EDT 1,923.84 1,805.88 1,239
3/22/2019 5 PM EDT 1,923.83 1,805.85 1,243
3/22/2019 6 PM EDT 1,923.83 1,805.90 1,237
3/22/2019 7 PM EDT 1,923.82 1,805.88 1,238
3/22/2019 8 PM EDT 1,923.81 1,805.94 1,232
3/22/2019 9 PM EDT 1,923.81 1,805.90 1,232
3/22/2019 10 PM EDT 1,923.80 1,805.92 1,225
3/22/2019 11 PM EDT 1,923.80 1,805.93 1,228
3/23/2019 12 AM EDT 1,923.79 1,805.91 1,224
3/23/2019 1 AM EDT 1,923.79 1,805.88 1,218
3/23/2019 2 AM EDT 1,923.78 1,805.90 1,214
3/23/2019 3 AM EDT 1,923.77 1,805.85 1,213
3/23/2019 4 AM EDT 1,923.77 1,805.87 1,210
3/23/2019 5 AM EDT 1,923.76 1,805.89 1,215
3/23/2019 6 AM EDT 1,923.76 1,805.86 1,207
3/23/2019 7 AM EDT 1,923.76 1,805.92 1,206
3/23/2019 8 AM EDT 1,923.76 1,805.84 1,206
3/23/2019 9 AM EDT 1,923.75 1,805.85 1,208
3/23/2019 10 AM EDT 1,923.74 1,805.87 1,203
3/23/2019 11 AM EDT 1,923.74 1,805.81 1,205
3/23/2019 12 PM EDT 1,923.73 1,805.84 1,206
3/23/2019 1 PM EDT 1,923.73 1,805.88 1,201
3/23/2019 2 PM EDT 1,923.72 1,805.87 1,202
3/23/2019 3 PM EDT 1,923.71 1,805.85 1,196
3/23/2019 4 PM EDT 1,923.71 1,805.87 1,201
3/23/2019 5 PM EDT 1,923.70 1,805.84 1,196
3/23/2019 6 PM EDT 1,923.70 1,805.83 1,196
3/23/2019 7 PM EDT 1,923.69 1,805.90 1,194
3/23/2019 8 PM EDT 1,923.68 1,805.80 1,189
3/23/2019 9 PM EDT 1,923.68 1,805.80 1,184
3/23/2019 10 PM EDT 1,923.68 1,805.81 1,185
3/23/2019 11 PM EDT 1,923.67 1,805.80 1,183
3/24/2019 12 AM EDT 1,923.67 1,805.74 1,178
3/24/2019 1 AM EDT 1,923.66 1,805.77 1,177

Elevations are in feet above sea level. Discharges are in cubic feet per second and are reported at the end of the hour.